Location: ???????
(52.3000°N, 54.4667°E)
Time: 22:50:34
(UTC+00:00)

CZ-2C R/B - Pass Details

Date: 24 January 2020
Orbit: 704 x 907 km, 98.1° (Epoch: 17 February)

Event Time Altitude Azimuth Distance (km) Brightness Sun altitude
Exits shadow 16:51:40 38° 302° (WNW) 1,295 4.5 -35.9°
Drops below altitude 10° 16:55:41 10° 336° (NNW) 2,551 6.1 -36.5°
Sets 16:58:16 0° 343° (NNW) 3,515 6.8 -36.9°
